Lapse_Rate
7.5 7.9 8.2 7.7 7.8 7.6 7.6 7.6 7.2 7.0 6.4 5.8 5.9 6.1 6.2 5.6 5.7 5.4 5.2 5.0 5.1 5.5 5.4 5.4 5.4 5.4 5.1 4.8 4.5 4.4 4.5 4.5 4.4 4.5 4.9 5.1 5.1 5.1 5.3 5.4 5.7 5.8 5.8
7.4 7.9 8.0 7.7 7.7 7.7 7.7 7.6 7.2 7.2 6.6 6.2 6.0 5.9 6.2 5.4 5.7 5.3 5.3 5.1 5.1 5.0 5.3 5.2 5.1 5.2 5.2 5.3 4.7 4.4 4.5 4.7 4.7 5.0 5.1 5.3 5.1 5.2 5.3 5.5 5.6 5.7 5.7
7.4 7.6 7.6 7.4 7.7 7.8 7.7 7.6 7.3 7.2 6.7 6.4 6.1 6.0 6.1 5.9 5.5 5.0 5.1 5.3 5.3 5.1 5.3 5.0 5.0 4.9 4.7 5.2 5.0 4.9 4.7 4.8 5.1 5.1 5.3 5.3 5.2 5.5 5.7 5.9 6.0 5.7 5.7
7.5 7.4 7.4 7.5 7.6 7.7 7.6 7.5 7.3 7.3 6.7 6.3 6.0 5.8 6.1 6.3 5.5 5.3 5.3 5.2 5.3 5.3 5.3 5.1 5.0 4.9 4.9 5.2 5.2 5.0 5.0 5.2 5.2 5.4 5.4 5.4 5.4 5.4 5.6 5.8 5.8 5.9 5.7
7.2 7.0 7.4 7.5 7.7 7.6 7.5 7.5 7.4 7.4 6.8 6.4 6.0 5.8 5.8 6.2 5.3 5.3 5.3 5.3 5.1 5.3 5.1 5.0 5.1 5.2 5.3 5.4 5.3 5.6 5.5 5.4 5.4 5.4 5.3 5.4 5.4 5.7 5.8 5.7 5.8 6.0 6.0
6.8 7.1 7.3 7.4 7.6 7.6 7.5 7.3 7.5 7.4 7.0 6.4 6.0 6.0 6.2 6.3 5.3 5.1 5.1 5.3 5.2 5.3 5.2 5.1 5.3 5.0 5.4 5.5 5.5 5.6 5.4 5.4 5.5 5.5 5.6 5.7 5.6 5.8 5.8 5.8 5.9 6.0 6.0
6.4 6.9 7.1 7.3 7.4 7.4 7.4 7.2 7.4 7.4 7.1 6.6 6.1 6.0 6.2 6.0 5.8 5.8 5.2 5.0 4.9 5.0 5.0 5.1 5.2 5.2 5.4 5.6 5.4 5.5 5.5 5.6 5.6 5.6 5.6 5.5 5.6 5.7 5.8 6.0 5.8 5.9 5.8
6.4 6.6 6.9 7.1 7.2 7.2 7.2 7.2 7.4 7.3 7.1 6.8 6.5 6.3 6.2 6.2 5.9 5.5 5.7 5.5 5.5 5.3 5.4 5.4 5.3 5.4 5.5 5.6 5.5 5.8 5.6 5.6 5.7 5.7 5.6 5.6 5.7 5.7 5.7 5.8 5.8 5.6 5.5
6.5 6.5 6.5 6.8 6.9 7.0 7.3 7.2 7.2 7.3 7.0 6.9 6.5 6.5 6.3 6.4 6.3 5.9 5.9 5.4 5.2 5.5 5.4 5.3 5.5 5.3 5.5 5.7 5.6 5.6 5.6 5.7 5.5 5.5 5.6 5.7 5.8 5.8 5.8 5.7 4.9 4.5 4.5
6.2 6.3 6.3 6.5 6.7 6.8 7.0 7.1 7.3 7.2 7.0 6.7 6.5 6.5 6.3 6.1 6.1 5.8 5.5 5.7 5.5 5.5 5.3 5.4 5.6 5.7 5.6 5.6 5.5 5.6 5.5 5.5 5.7 5.7 5.8 5.8 5.6 5.3 4.8 4.6 4.6 4.4 3.9
5.5 6.2 6.0 6.2 6.6 6.6 6.8 6.7 7.0 7.1 6.8 6.5 6.4 6.3 6.4 6.3 6.2 6.1 5.7 5.5 5.5 5.5 5.5 5.6 5.5 5.5 5.7 5.6 5.5 5.7 5.6 5.7 5.8 5.6 5.5 5.1 4.7 4.5 4.5 4.3 4.1 4.2 4.1
5.3 5.6 5.9 6.0 6.1 6.4 6.5 6.8 6.9 6.8 6.5 6.4 6.3 6.3 6.1 6.2 6.1 6.0 6.2 6.1 6.0 5.9 5.8 5.8 5.7 5.5 5.6 5.7 5.7 5.6 5.8 5.6 5.3 4.6 4.2 4.3 4.2 4.1 3.9 4.2 4.1 4.0 4.2
5.1 5.5 6.0 5.7 6.1 6.2 6.3 6.4 6.7 6.8 6.6 6.3 6.3 6.3 6.3 6.1 6.1 6.0 5.9 5.5 5.5 5.7 5.7 5.6 5.8 5.7 5.7 5.7 5.8 5.5 5.0 4.7 4.4 4.3 4.2 3.9 3.8 4.0 4.1 4.0 4.0 4.1 4.2
5.2 5.0 5.1 5.4 5.4 5.7 6.0 6.0 5.9 6.1 6.1 6.1 6.2 6.2 6.2 5.9 5.9 5.7 5.8 5.8 5.7 5.6 5.8 5.7 5.6 5.5 5.2 5.0 4.8 4.8 4.6 4.3 4.2 4.1 3.7 3.8 4.0 4.0 4.0 4.0 3.8 3.8 3.6
5.4 5.1 5.2 5.1 5.4 5.6 5.7 5.7 6.0 5.7 6.0 6.0 5.9 5.9 6.0 5.8 5.6 5.5 5.5 5.7 5.6 5.7 5.7 5.4 5.0 5.1 4.9 4.6 4.3 4.2 4.1 4.5 4.2 3.9 3.9 3.9 4.0 3.6 3.7 3.7 3.5 3.3 3.3
5.4 4.9 5.3 5.2 5.4 5.3 5.5 5.8 5.8 5.5 5.6 5.5 5.3 5.1 5.6 5.4 5.7 5.6 5.5 5.7 5.9 5.6 5.1 5.0 4.7 4.2 4.1 4.1 4.2 4.4 4.3 4.1 3.8 3.8 3.9 3.7 3.8 3.7 3.5 3.3 3.3 3.4 3.4
5.6 4.8 5.1 5.4 5.4 5.3 5.3 5.5 5.4 5.6 5.8 5.3 5.3 4.9 5.3 5.1 5.3 5.0 5.1 5.6 5.4 4.8 4.3 4.2 4.1 3.8 4.0 3.8 3.8 3.9 3.9 3.9 3.7 3.7 3.8 3.7 3.6 3.4 3.2 3.2 3.2 3.2 3.0
5.5 5.5 5.8 5.5 5.5 5.3 5.5 5.6 5.6 5.6 5.5 5.8 5.7 5.2 5.0 4.8 4.8 4.9 4.7 4.5 4.3 4.5 4.1 4.0 4.0 3.9 4.1 4.0 3.9 3.7 3.7 3.7 3.7 3.7 3.7 3.6 3.4 3.3 3.1 3.0 2.8 2.8 2.7
6.0 6.2 5.9 5.5 5.5 5.4 5.7 5.6 5.7 5.8 5.8 6.1 5.9 5.4 5.1 4.9 4.5 4.5 4.4 4.2 3.5 3.8 3.9 3.8 3.7 4.1 4.1 3.8 3.8 3.6 3.6 3.7 3.7 3.6 3.6 3.4 3.2 3.0 2.9 2.7 2.6 2.6 2.7
5.3 5.5 5.5 5.8 6.0 6.0 6.3 5.9 5.8 5.5 5.1 5.0 5.0 4.6 4.4 4.1 3.8 3.6 3.6 3.6 3.7 3.8 3.6 3.8 3.8 3.8 3.8 3.9 3.8 3.6 3.7 3.7 3.6 3.4 3.3 3.2 3.0 2.7 2.6 2.6 2.6 2.8 2.7
5.0 5.2 5.3 5.2 5.1 5.2 4.9 4.8 4.6 4.3 4.2 4.2 4.3 4.2 4.0 3.8 3.8 3.8 3.9 3.7 3.7 3.6 3.8 3.8 3.8 3.9 3.9 3.8 3.8 3.7 3.5 3.4 3.3 3.3 3.0 2.8 2.7 2.6 2.7 2.8 2.8 2.8 2.6
4.8 4.9 4.9 4.6 4.5 4.4 4.3 4.2 4.2 4.2 4.1 4.2 4.1 4.0 3.9 4.0 4.0 3.5 3.4 3.5 3.8 3.8 3.8 4.0 4.1 4.1 4.1 3.8 3.6 3.5 3.4 3.3 3.2 3.0 2.8 2.8 2.8 2.8 2.9 2.9 2.8 2.7 2.6
4.6 4.5 4.3 4.2 4.0 3.8 3.8 3.8 3.9 3.9 3.9 3.9 3.8 3.9 3.8 3.8 3.4 3.3 3.6 3.8 4.0 4.0 4.1 4.2 4.2 4.0 3.8 3.7 3.5 3.4 3.4 3.2 3.0 2.9 2.9 2.9 3.0 3.0 2.9 2.9 2.8 2.6 2.6
4.2 4.0 3.9 3.9 4.0 3.9 3.8 3.8 3.8 3.8 3.7 3.8 3.9 3.5 2.7 3.1 3.5 3.8 4.0 4.1 4.0 4.1 4.1 4.0 3.8 3.6 3.5 3.5 3.4 3.3 3.2 3.0 2.9 2.9 3.1 3.2 3.1 3.0 3.0 2.8 2.7 2.8 3.1
4.3 4.2 4.1 4.0 4.0 3.9 3.9 3.8 3.9 3.9 3.8 3.4 2.8 3.0 3.5 3.7 3.9 4.1 4.0 4.0 4.0 4.0 3.9 3.6 3.6 3.6 3.5 3.4 3.3 3.2 3.0 3.0 3.2 3.3 3.3 3.3 3.2 3.0 2.9 2.9 3.0 3.3 3.8
4.3 4.1 4.0 4.0 4.0 4.0 4.1 4.0 3.8 3.3 2.9 3.2 3.6 3.8 3.8 3.9 4.0 4.0 4.0 4.0 3.9 3.7 3.6 3.5 3.5 3.5 3.4 3.4 3.3 3.3 3.4 3.5 3.4 3.4 3.4 3.2 3.1 3.1 3.1 3.2 3.6 4.1 4.4
Wind_Speed
12 11 13 13 14 13 11 10 10 9 7 6 10 11 13 14 16 15 14 15 17 16 16 17 16 14 9 8 6 6 6 5 3 2 3 5 4 9 12 12 17 17 18
11 11 11 11 14 13 12 12 9 8 9 11 11 10 10 16 16 17 16 16 20 19 18 17 16 10 12 9 7 10 7 5 5 8 3 3 5 12 11 11 11 13 14
11 11 10 11 14 13 12 11 8 7 6 6 7 7 8 10 12 17 19 18 17 17 17 18 17 15 11 7 8 8 7 5 6 4 3 3 4 4 5 9 8 10 9
9 10 10 11 12 13 13 11 9 8 7 7 6 7 6 8 10 17 19 18 17 16 16 16 13 12 13 12 9 9 6 6 3 5 5 4 4 6 5 4 4 3 4
10 10 11 10 11 12 12 10 8 7 6 6 6 5 3 2 3 13 14 14 12 8 10 10 9 13 14 8 5 5 8 5 6 7 5 4 3 3 3 1 2 2 3
10 11 12 12 12 14 13 11 10 8 7 6 6 6 6 4 11 16 14 13 14 13 15 15 15 23 25 28 28 26 13 8 8 4 3 7 6 6 3 2 2 1 1
10 10 12 14 13 14 13 12 10 8 8 7 7 8 10 10 21 22 21 13 13 13 13 14 14 12 19 19 28 32 30 28 16 10 12 7 7 3 4 5 4 3 3
12 10 12 14 12 14 13 12 9 9 9 8 8 9 12 9 25 27 26 17 16 15 13 12 17 14 14 19 19 20 19 17 15 14 13 11 11 10 8 5 4 1 4
13 11 12 13 12 11 11 12 10 11 9 9 8 11 14 11 17 28 24 16 17 16 13 13 16 18 23 27 21 21 19 17 30 32 30 26 21 18 11 6 6 4 3
12 8 13 12 11 10 12 12 8 11 11 9 11 10 15 14 15 21 22 14 17 13 15 16 25 20 25 24 18 17 17 13 13 13 16 18 17 17 16 14 6 5 4
12 13 10 12 13 12 10 11 12 13 13 12 14 11 12 12 13 20 22 14 14 13 12 12 12 25 26 24 21 13 15 14 14 11 9 8 11 12 11 10 8 5 4
12 10 4 12 10 11 15 11 12 14 14 13 14 12 10 11 19 21 25 25 23 16 15 12 16 27 28 28 20 26 25 16 8 9 8 8 7 7 7 8 7 6 4
8 11 11 8 11 11 14 14 11 11 12 11 10 11 11 10 13 28 30 31 29 17 14 24 30 30 30 22 26 23 17 9 9 9 9 7 6 8 8 5 5 6 3
9 10 8 10 11 10 9 8 9 9 10 11 11 12 12 11 11 12 14 17 30 22 22 15 16 18 20 16 13 13 9 8 9 9 8 6 7 5 5 6 5 5 3
9 7 10 9 13 10 10 8 10 9 10 10 9 11 12 11 10 17 18 13 12 15 17 12 10 11 11 11 10 10 9 9 8 7 7 6 5 5 5 5 5 5 5
9 7 9 8 8 10 11 14 27 24 30 25 21 13 12 22 28 26 29 31 30 23 12 11 11 10 11 10 10 9 8 9 7 7 6 5 5 5 4 4 4 5 6
9 8 9 11 8 9 11 12 15 20 33 30 30 25 27 28 30 30 28 27 23 19 11 11 9 9 10 10 9 9 8 7 8 6 6 5 4 4 3 4 5 6 6
11 14 9 8 9 9 11 13 11 14 16 15 23 23 29 29 28 27 26 22 12 12 11 11 10 9 9 9 9 8 8 6 6 5 5 5 3 4 4 5 5 6 7
10 9 9 9 10 10 11 12 13 13 14 14 14 18 19 26 23 20 16 10 11 11 10 10 10 10 9 9 8 7 7 6 5 5 4 4 3 3 4 4 5 6 7
11 17 13 10 10 11 11 12 12 12 12 12 11 11 10 12 10 10 10 10 10 10 9 10 9 9 9 9 7 7 6 6 5 4 4 3 3 3 4 4 5 6 6
10 11 15 10 10 10 10 11 11 11 11 10 10 10 13 10 10 10 9 9 9 9 9 9 9 9 8 7 6 6 5 5 4 3 3 3 3 3 4 4 5 5 6
9 10 10 11 11 11 11 11 11 12 12 12 11 11 14 9 10 10 10 9 9 11 13 12 8 10 10 8 7 5 5 4 4 3 3 2 3 3 4 4 5 5 6
9 11 11 11 11 13 11 11 11 11 11 11 10 10 9 9 9 10 10 9 12 13 13 14 12 11 9 8 6 5 4 4 4 4 3 3 3 4 4 5 5 6 6
10 11 11 10 9 10 10 11 10 12 11 10 10 10 9 9 9 10 9 12 13 13 13 11 9 9 9 7 6 5 5 4 2 2 3 4 4 3 5 5 5 6 6
9 9 9 9 9 10 10 10 10 10 10 9 9 9 9 9 9 9 10 12 12 12 11 8 8 8 7 6 5 4 4 3 2 3 4 5 6 6 5 5 5 7 8
8 9 9 9 9 9 9 9 9 9 9 9 9 9 8 8 8 8 10 10 10 9 8 7 7 7 5 5 4 2 1 2 3 3 6 7 6 6 5 6 7 6 8
Wind_Direction
213 212 215 203 202 194 183 183 185 174 178 186 186 192 187 183 182 181 188 190 198 195 195 195 189 175 146 141 131 127 124 125 151 117 101 109 83 94 80 84 91 86 70
214 213 216 201 202 194 188 177 180 202 204 205 199 202 193 185 185 187 192 196 196 198 192 190 183 167 156 155 152 166 161 176 171 201 132 109 91 79 87 73 77 91 84
208 207 209 195 199 195 186 174 166 170 202 215 219 225 212 200 197 194 195 193 192 190 190 192 179 165 156 168 180 178 172 178 204 212 117 92 79 93 89 74 60 91 76
204 204 204 202 201 195 182 161 158 167 184 192 203 210 214 218 218 207 195 191 190 185 183 179 174 169 180 193 195 196 178 154 113 104 83 97 98 75 78 77 81 64 78
198 199 205 198 196 188 175 155 155 161 166 171 171 166 150 176 214 191 186 179 174 135 100 91 86 84 85 82 140 125 131 107 107 105 100 101 96 91 80 59 96 157 86
216 202 207 191 193 187 170 155 157 152 147 142 121 100 77 57 89 100 114 111 105 106 105 92 89 86 82 80 76 67 65 118 120 107 98 107 98 107 96 97 103 137 132
286 200 198 189 187 186 169 159 149 129 114 84 77 82 78 83 89 91 96 96 102 100 102 107 96 91 91 89 80 75 68 66 67 99 106 99 106 99 114 95 65 67 82
289 208 187 187 186 186 170 148 119 111 109 99 87 89 92 88 103 97 94 92 85 83 86 97 102 98 99 101 92 82 74 70 72 81 86 88 93 90 85 75 58 132 138
277 208 187 177 175 176 140 132 125 113 101 98 95 101 103 95 104 108 103 96 92 89 87 89 95 101 107 106 101 99 94 89 86 90 91 89 83 76 75 78 59 66 58
326 295 183 175 156 143 130 125 111 107 107 103 92 90 103 105 103 110 111 112 105 101 92 89 94 102 102 101 103 108 102 107 109 99 88 83 82 72 60 57 49 50 45
316 316 194 151 135 131 121 123 119 112 106 100 96 88 90 95 101 108 114 115 116 110 102 100 100 104 101 101 102 106 110 113 105 99 96 84 74 69 63 62 55 43 18
351 351 54 124 126 128 123 119 119 117 110 106 102 93 83 88 98 104 107 107 113 110 107 104 104 104 102 100 97 105 107 108 105 97 91 92 87 78 67 55 41 28 34
22 40 32 70 108 120 125 124 118 118 120 117 113 109 104 100 100 105 104 105 103 101 105 110 108 103 100 96 102 103 102 104 107 106 102 91 82 75 68 53 40 26 32
39 31 68 61 77 89 99 107 116 120 121 123 123 121 118 116 117 115 109 105 105 103 103 99 99 96 95 99 94 91 94 101 105 103 99 96 90 75 58 33 15 12 351
37 58 55 69 79 65 71 87 94 83 100 114 115 121 125 121 119 120 120 117 113 113 115 108 103 106 108 104 102 103 103 98 92 92 97 91 78 66 50 29 14 352 354
51 45 64 63 71 90 84 84 80 96 98 94 94 101 101 111 115 116 115 114 116 118 109 109 113 114 113 113 110 104 96 94 97 98 89 81 70 56 36 28 12 3 349
57 63 70 73 73 89 103 97 101 86 91 97 102 107 105 116 114 114 112 106 107 109 103 105 105 116 116 114 111 106 104 98 99 91 84 71 62 61 21 21 10 5 355
63 60 72 77 92 95 94 99 102 100 101 98 92 101 107 109 111 111 109 108 106 100 108 115 118 121 113 111 114 113 113 109 98 91 83 72 49 40 26 13 10 360 351
66 68 68 74 80 85 91 95 96 96 99 98 99 94 96 102 105 108 111 106 111 110 111 112 115 111 109 111 109 108 106 99 97 96 86 70 44 25 27 8 355 356 327
70 77 81 80 81 82 82 87 89 93 92 96 96 98 112 110 100 95 96 103 106 107 110 109 108 107 110 113 111 116 120 117 113 103 83 66 37 14 7 356 354 338 342
88 80 85 79 79 81 84 86 90 92 92 91 85 86 101 109 108 105 103 102 103 105 108 109 108 106 106 112 119 112 109 107 98 94 64 53 26 355 354 343 331 331 336
81 85 86 92 93 91 92 92 92 96 100 101 100 93 97 99 101 100 100 98 96 99 104 107 106 101 107 114 117 119 119 120 116 81 58 19 345 350 333 325 328 335 330
85 89 90 92 96 98 95 96 98 100 103 106 106 102 99 99 102 102 101 99 97 97 95 96 99 103 108 110 113 118 120 98 80 51 9 342 331 336 321 326 328 323 338
88 93 96 96 99 101 99 99 100 103 107 104 102 103 104 104 103 99 99 102 104 99 96 96 104 110 114 120 117 102 91 89 63 27 345 325 311 312 317 316 310 324 314
91 96 99 100 100 104 107 105 105 103 104 103 103 103 106 107 107 105 106 107 106 102 102 113 114 118 106 92 90 85 80 44 353 339 305 289 287 296 284 298 308 311 312
99 101 103 106 106 106 107 108 108 110 109 110 110 108 109 109 109 109 111 111 109 113 120 114 108 102 116 117 110 88 26 335 315 303 299 281 279 286 295 303 304 306 304